QPF
0.00 0.00 0.00 0.00 0.00 0.00 0.00 0.01 0.03 0.03 0.02 0.02 0.02 0.01 0.01 0.01 0.01 0.01 0.02 0.01 0.01 0.03 0.03 0.02 0.06 0.11 0.14 0.11 0.10 0.09 0.09 0.10 0.11 0.12 0.10 0.06 0.06 0.08
0.00 0.00 0.00 0.00 0.00 0.00 0.00 0.00 0.01 0.01 0.02 0.02 0.01 0.01 0.01 0.01 0.01 0.02 0.03 0.02 0.01 0.02 0.04 0.05 0.07 0.09 0.13 0.11 0.09 0.08 0.07 0.06 0.07 0.07 0.07 0.07 0.05 0.04
0.00 0.00 0.00 0.01 0.01 0.01 0.00 0.00 0.00 0.01 0.01 0.00 0.00 0.01 0.01 0.01 0.02 0.02 0.03 0.03 0.02 0.01 0.02 0.04 0.07 0.09 0.12 0.10 0.09 0.08 0.06 0.05 0.04 0.04 0.05 0.05 0.05 0.04
0.00 0.00 0.00 0.00 0.00 0.00 0.01 0.00 0.00 0.01 0.01 0.00 0.00 0.01 0.01 0.01 0.02 0.02 0.02 0.02 0.02 0.01 0.01 0.02 0.04 0.07 0.09 0.10 0.08 0.07 0.05 0.05 0.03 0.03 0.03 0.03 0.04 0.04
0.00 0.00 0.00 0.00 0.01 0.01 0.01 0.01 0.01 0.01 0.00 0.00 0.00 0.00 0.00 0.00 0.01 0.01 0.01 0.01 0.01 0.01 0.01 0.02 0.03 0.04 0.07 0.09 0.09 0.08 0.06 0.05 0.04 0.03 0.03 0.03 0.04 0.04
0.00 0.00 0.00 0.00 0.01 0.01 0.01 0.01 0.01 0.00 0.00 0.00 0.00 0.00 0.00 0.00 0.00 0.01 0.01 0.01 0.01 0.00 0.01 0.01 0.02 0.03 0.03 0.06 0.07 0.08 0.06 0.06 0.05 0.04 0.04 0.04 0.04 0.05
0.00 0.00 0.00 0.00 0.00 0.00 0.00 0.01 0.01 0.01 0.01 0.01 0.01 0.01 0.01 0.01 0.01 0.01 0.01 0.01 0.01 0.01 0.01 0.01 0.02 0.03 0.03 0.04 0.05 0.06 0.06 0.05 0.05 0.04 0.05 0.05 0.04 0.04
0.00 0.00 0.00 0.00 0.00 0.00 0.00 0.00 0.00 0.01 0.02 0.02 0.02 0.01 0.01 0.01 0.01 0.01 0.01 0.02 0.01 0.01 0.01 0.01 0.02 0.03 0.03 0.04 0.05 0.05 0.04 0.03 0.04 0.05 0.04 0.05 0.05 0.05
0.00 0.00 0.00 0.00 0.00 0.00 0.00 0.00 0.00 0.01 0.02 0.02 0.02 0.01 0.02 0.02 0.01 0.01 0.01 0.02 0.02 0.01 0.01 0.01 0.01 0.02 0.03 0.03 0.05 0.06 0.07 0.05 0.04 0.04 0.06 0.05 0.05 0.07
0.00 0.00 0.00 0.00 0.00 0.00 0.00 0.00 0.00 0.00 0.01 0.02 0.02 0.02 0.02 0.02 0.02 0.02 0.02 0.02 0.02 0.02 0.01 0.01 0.01 0.01 0.02 0.03 0.04 0.05 0.06 0.07 0.06 0.04 0.04 0.05 0.06 0.07
0.00 0.00 0.00 0.00 0.00 0.01 0.00 0.00 0.00 0.00 0.01 0.02 0.03 0.03 0.02 0.02 0.02 0.03 0.04 0.05 0.03 0.02 0.01 0.01 0.01 0.01 0.01 0.02 0.02 0.03 0.04 0.05 0.06 0.06 0.05 0.05 0.05 0.05
0.00 0.00 0.00 0.00 0.00 0.01 0.01 0.00 0.00 0.01 0.01 0.01 0.01 0.02 0.02 0.02 0.02 0.03 0.05 0.05 0.05 0.04 0.02 0.01 0.02 0.02 0.02 0.02 0.02 0.03 0.03 0.04 0.05 0.06 0.06 0.06 0.07 0.06
0.01 0.00 0.00 0.00 0.00 0.01 0.01 0.00 0.01 0.01 0.01 0.01 0.01 0.01 0.01 0.02 0.02 0.02 0.04 0.06 0.05 0.04 0.03 0.03 0.02 0.03 0.03 0.03 0.03 0.04 0.04 0.05 0.05 0.06 0.06 0.06 0.06 0.06
0.00 0.00 0.00 0.00 0.00 0.00 0.01 0.00 0.01 0.01 0.01 0.00 0.01 0.01 0.02 0.02 0.02 0.02 0.02 0.04 0.06 0.04 0.03 0.03 0.03 0.03 0.04 0.04 0.04 0.04 0.05 0.05 0.06 0.07 0.08 0.08 0.07 0.07
0.00 0.00 0.00 0.00 0.00 0.00 0.00 0.01 0.01 0.01 0.01 0.01 0.01 0.01 0.01 0.01 0.02 0.03 0.03 0.02 0.04 0.06 0.05 0.02 0.03 0.04 0.04 0.04 0.04 0.04 0.05 0.05 0.05 0.06 0.08 0.09 0.08 0.07
0.00 0.00 0.00 0.00 0.00 0.00 0.01 0.02 0.02 0.01 0.00 0.01 0.01 0.01 0.01 0.01 0.01 0.03 0.03 0.02 0.03 0.05 0.06 0.04 0.02 0.03 0.04 0.04 0.04 0.04 0.04 0.05 0.05 0.06 0.06 0.06 0.06 0.06
0.00 0.00 0.00 0.00 0.00 0.00 0.01 0.02 0.02 0.01 0.00 0.00 0.00 0.01 0.01 0.01 0.01 0.02 0.03 0.03 0.02 0.02 0.04 0.04 0.03 0.03 0.04 0.04 0.05 0.05 0.05 0.05 0.04 0.05 0.07 0.07 0.06 0.05
0.00 0.00 0.00 0.00 0.00 0.00 0.00 0.01 0.01 0.01 0.00 0.00 0.00 0.00 0.00 0.01 0.01 0.02 0.03 0.03 0.02 0.02 0.02 0.03 0.03 0.03 0.04 0.04 0.04 0.05 0.05 0.05 0.05 0.05 0.06 0.08 0.07 0.06
0.00 0.00 0.00 0.00 0.00 0.00 0.00 0.00 0.00 0.01 0.00 0.00 0.00 0.00 0.00 0.01 0.01 0.01 0.02 0.03 0.03 0.02 0.02 0.02 0.03 0.03 0.04 0.04 0.03 0.03 0.05 0.05 0.06 0.06 0.05 0.06 0.06 0.06
0.00 0.00 0.00 0.00 0.00 0.00 0.00 0.00 0.00 0.00 0.00 0.00 0.00 0.00 0.00 0.01 0.01 0.01 0.02 0.02 0.02 0.02 0.02 0.02 0.03 0.03 0.04 0.04 0.04 0.03 0.03 0.04 0.05 0.06 0.06 0.06 0.06 0.06
0.00 0.00 0.00 0.00 0.00 0.00 0.00 0.00 0.00 0.00 0.00 0.00 0.00 0.00 0.00 0.01 0.01 0.01 0.02 0.02 0.02 0.02 0.02 0.02 0.03 0.03 0.04 0.05 0.05 0.03 0.02 0.03 0.04 0.06 0.07 0.08 0.07 0.07
0.00 0.00 0.00 0.00 0.00 0.00 0.00 0.00 0.00 0.00 0.00 0.00 0.00 0.00 0.00 0.01 0.01 0.01 0.02 0.02 0.03 0.03 0.02 0.02 0.03 0.04 0.05 0.06 0.05 0.03 0.03 0.03 0.04 0.05 0.07 0.08 0.08 0.07
0.00 0.00 0.00 0.00 0.00 0.00 0.00 0.00 0.00 0.00 0.00 0.00 0.00 0.01 0.01 0.01 0.01 0.01 0.01 0.02 0.03 0.03 0.03 0.03 0.04 0.05 0.05 0.05 0.05 0.04 0.04 0.04 0.04 0.05 0.06 0.07 0.07 0.06
MSLP
1017.72 1017.58 1017.47 1017.36 1017.26 1017.16 1017.06 1016.97 1016.87 1016.79 1016.72 1016.67 1016.63 1016.61 1016.61 1016.61 1016.63 1016.67 1016.73 1016.81 1016.93 1017.07 1017.23 1017.41 1017.58 1017.75 1017.89 1018.01 1018.11 1018.19 1018.27 1018.37 1018.51 1018.69 1018.91 1019.17 1019.46 1019.75
1018.04 1017.95 1017.86 1017.78 1017.69 1017.60 1017.50 1017.40 1017.29 1017.18 1017.09 1017.00 1016.93 1016.87 1016.83 1016.80 1016.78 1016.79 1016.82 1016.88 1016.97 1017.09 1017.24 1017.40 1017.56 1017.69 1017.80 1017.87 1017.91 1017.92 1017.94 1017.97 1018.05 1018.18 1018.38 1018.63 1018.93 1019.24
1018.34 1018.29 1018.24 1018.19 1018.13 1018.05 1017.96 1017.85 1017.74 1017.62 1017.51 1017.41 1017.31 1017.23 1017.15 1017.09 1017.04 1017.00 1017.00 1017.03 1017.09 1017.18 1017.30 1017.42 1017.54 1017.63 1017.68 1017.68 1017.64 1017.58 1017.51 1017.46 1017.46 1017.54 1017.69 1017.92 1018.21 1018.55
1018.61 1018.60 1018.58 1018.56 1018.53 1018.48 1018.40 1018.31 1018.20 1018.09 1017.98 1017.87 1017.76 1017.66 1017.57 1017.47 1017.39 1017.33 1017.29 1017.27 1017.30 1017.35 1017.43 1017.50 1017.57 1017.60 1017.58 1017.50 1017.38 1017.22 1017.05 1016.91 1016.83 1016.82 1016.92 1017.11 1017.40 1017.74
1018.84 1018.85 1018.87 1018.87 1018.87 1018.84 1018.78 1018.71 1018.63 1018.53 1018.43 1018.33 1018.23 1018.12 1018.02 1017.91 1017.81 1017.72 1017.64 1017.60 1017.58 1017.59 1017.61 1017.64 1017.64 1017.61 1017.52 1017.36 1017.15 1016.90 1016.64 1016.41 1016.24 1016.16 1016.19 1016.34 1016.59 1016.93
1019.02 1019.04 1019.07 1019.10 1019.11 1019.10 1019.06 1019.01 1018.95 1018.88 1018.80 1018.72 1018.63 1018.53 1018.43 1018.32 1018.21 1018.10 1018.00 1017.92 1017.87 1017.84 1017.82 1017.80 1017.75 1017.66 1017.51 1017.29 1017.00 1016.68 1016.34 1016.04 1015.79 1015.64 1015.61 1015.71 1015.93 1016.25
1019.13 1019.15 1019.19 1019.21 1019.23 1019.23 1019.21 1019.18 1019.13 1019.08 1019.03 1018.96 1018.90 1018.82 1018.72 1018.62 1018.50 1018.38 1018.27 1018.18 1018.10 1018.04 1017.99 1017.94 1017.86 1017.73 1017.54 1017.28 1016.95 1016.59 1016.21 1015.85 1015.56 1015.36 1015.29 1015.35 1015.53 1015.82
1019.18 1019.20 1019.22 1019.24 1019.26 1019.25 1019.24 1019.21 1019.17 1019.13 1019.09 1019.05 1018.99 1018.92 1018.84 1018.74 1018.63 1018.51 1018.40 1018.30 1018.21 1018.15 1018.08 1018.02 1017.92 1017.78 1017.59 1017.32 1016.99 1016.62 1016.24 1015.87 1015.57 1015.35 1015.25 1015.28 1015.43 1015.69
1019.21 1019.21 1019.22 1019.23 1019.22 1019.21 1019.18 1019.14 1019.10 1019.06 1019.02 1018.97 1018.93 1018.86 1018.78 1018.69 1018.58 1018.47 1018.36 1018.26 1018.18 1018.12 1018.06 1018.00 1017.92 1017.80 1017.62 1017.38 1017.09 1016.75 1016.40 1016.07 1015.78 1015.58 1015.48 1015.50 1015.63 1015.85
1019.26 1019.25 1019.24 1019.22 1019.20 1019.16 1019.11 1019.05 1018.99 1018.93 1018.87 1018.82 1018.76 1018.68 1018.60 1018.50 1018.40 1018.29 1018.18 1018.09 1018.02 1017.97 1017.93 1017.89 1017.83 1017.75 1017.61 1017.42 1017.19 1016.91 1016.62 1016.35 1016.12 1015.96 1015.89 1015.92 1016.04 1016.23
1019.37 1019.36 1019.34 1019.30 1019.25 1019.19 1019.10 1019.01 1018.92 1018.83 1018.74 1018.66 1018.57 1018.48 1018.38 1018.27 1018.15 1018.04 1017.94 1017.86 1017.79 1017.75 1017.73 1017.71 1017.68 1017.63 1017.54 1017.41 1017.23 1017.03 1016.82 1016.62 1016.46 1016.36 1016.33 1016.38 1016.50 1016.68
1019.58 1019.57 1019.54 1019.50 1019.42 1019.33 1019.21 1019.09 1018.96 1018.83 1018.70 1018.58 1018.45 1018.33 1018.21 1018.08 1017.95 1017.83 1017.72 1017.63 1017.57 1017.53 1017.51 1017.49 1017.48 1017.45 1017.39 1017.30 1017.19 1017.05 1016.91 1016.78 1016.68 1016.64 1016.65 1016.73 1016.86 1017.03
1019.88 1019.88 1019.86 1019.80 1019.70 1019.58 1019.43 1019.27 1019.11 1018.94 1018.77 1018.61 1018.46 1018.30 1018.15 1018.00 1017.85 1017.72 1017.59 1017.49 1017.41 1017.36 1017.32 1017.30 1017.27 1017.24 1017.19 1017.11 1017.02 1016.92 1016.83 1016.75 1016.70 1016.70 1016.75 1016.85 1016.99 1017.15
1020.24 1020.25 1020.22 1020.15 1020.04 1019.89 1019.72 1019.53 1019.33 1019.13 1018.94 1018.75 1018.57 1018.40 1018.22 1018.05 1017.89 1017.73 1017.59 1017.46 1017.36 1017.28 1017.21 1017.15 1017.09 1017.02 1016.94 1016.85 1016.75 1016.65 1016.57 1016.51 1016.49 1016.50 1016.57 1016.68 1016.82 1016.97
1020.57 1020.58 1020.55 1020.46 1020.34 1020.17 1019.98 1019.77 1019.55 1019.34 1019.13 1018.93 1018.74 1018.55 1018.37 1018.19 1018.02 1017.85 1017.69 1017.54 1017.41 1017.28 1017.16 1017.05 1016.94 1016.81 1016.68 1016.54 1016.40 1016.27 1016.16 1016.09 1016.05 1016.06 1016.12 1016.22 1016.35 1016.49
1020.77 1020.77 1020.72 1020.62 1020.48 1020.30 1020.09 1019.88 1019.66 1019.45 1019.24 1019.05 1018.87 1018.69 1018.52 1018.35 1018.17 1018.00 1017.83 1017.66 1017.50 1017.34 1017.17 1017.00 1016.82 1016.62 1016.42 1016.22 1016.02 1015.83 1015.68 1015.56 1015.48 1015.46 1015.48 1015.55 1015.66 1015.78
1020.74 1020.72 1020.65 1020.53 1020.36 1020.17 1019.97 1019.76 1019.55 1019.36 1019.18 1019.02 1018.86 1018.72 1018.57 1018.42 1018.26 1018.10 1017.93 1017.76 1017.57 1017.38 1017.17 1016.95 1016.71 1016.46 1016.19 1015.92 1015.65 1015.40 1015.18 1015.00 1014.87 1014.80 1014.77 1014.79 1014.85 1014.94
1020.42 1020.36 1020.26 1020.11 1019.93 1019.74 1019.54 1019.35 1019.17 1019.02 1018.88 1018.76 1018.65 1018.54 1018.43 1018.31 1018.19 1018.05 1017.89 1017.72 1017.54 1017.33 1017.11 1016.86 1016.58 1016.29 1015.97 1015.65 1015.33 1015.02 1014.74 1014.51 1014.31 1014.18 1014.09 1014.05 1014.06 1014.09
1019.78 1019.69 1019.56 1019.39 1019.20 1019.01 1018.83 1018.67 1018.53 1018.42 1018.33 1018.26 1018.20 1018.13 1018.07 1017.99 1017.90 1017.79 1017.66 1017.52 1017.35 1017.15 1016.93 1016.68 1016.40 1016.09 1015.76 1015.41 1015.06 1014.72 1014.40 1014.12 1013.87 1013.67 1013.53 1013.42 1013.36 1013.34
1018.87 1018.74 1018.59 1018.41 1018.22 1018.05 1017.90 1017.78 1017.68 1017.62 1017.58 1017.56 1017.54 1017.52 1017.50 1017.45 1017.40 1017.32 1017.22 1017.11 1016.96 1016.80 1016.60 1016.38 1016.12 1015.83 1015.52 1015.18 1014.84 1014.49 1014.15 1013.84 1013.55 1013.30 1013.10 1012.93 1012.80 1012.71
1017.75 1017.61 1017.44 1017.26 1017.10 1016.96 1016.84 1016.76 1016.72 1016.70 1016.70 1016.72 1016.74 1016.75 1016.75 1016.73 1016.70 1016.65 1016.58 1016.50 1016.39 1016.26 1016.11 1015.94 1015.73 1015.49 1015.22 1014.92 1014.60 1014.28 1013.95 1013.62 1013.32 1013.03 1012.78 1012.55 1012.35 1012.20
1016.53 1016.38 1016.22 1016.07 1015.93 1015.83 1015.76 1015.73 1015.72 1015.75 1015.78 1015.82 1015.86 1015.88 1015.89 1015.89 1015.86 1015.83 1015.78 1015.72 1015.65 1015.57 1015.47 1015.35 1015.20 1015.03 1014.82 1014.58 1014.32 1014.03 1013.72 1013.41 1013.10 1012.79 1012.50 1012.23 1011.98 1011.76
1015.30 1015.16 1015.02 1014.91 1014.82 1014.76 1014.73 1014.74 1014.78 1014.82 1014.88 1014.92 1014.96 1014.98 1014.98 1014.97 1014.94 1014.90 1014.87 1014.82 1014.78 1014.74 1014.69 1014.63 1014.55 1014.44 1014.30 1014.13 1013.92 1013.68 1013.41 1013.12 1012.82 1012.51 1012.19 1011.89 1011.60 1011.33
Thickness
5696 5695 5695 5694 5694 5693 5693 5692 5690 5689 5691 5695 5697 5699 5699 5699 5700 5703 5706 5705 5707 5709 5710 5712 5714 5716 5718 5720 5722 5723 5724 5725 5725 5726 5727 5727 5728 5729
5693 5693 5693 5694 5692 5692 5691 5692 5692 5690 5689 5692 5694 5695 5695 5698 5697 5700 5702 5702 5703 5705 5706 5708 5710 5712 5714 5715 5717 5719 5720 5721 5722 5722 5723 5724 5725 5726
5695 5693 5691 5691 5691 5690 5690 5690 5689 5689 5687 5690 5692 5693 5694 5695 5696 5697 5698 5700 5701 5701 5702 5703 5705 5707 5709 5711 5712 5714 5715 5716 5718 5719 5719 5720 5722 5722
5693 5692 5691 5689 5688 5688 5687 5687 5686 5686 5685 5684 5688 5689 5690 5691 5692 5693 5695 5696 5697 5697 5698 5699 5701 5702 5704 5706 5707 5709 5710 5711 5713 5714 5715 5716 5717 5718
5691 5690 5689 5688 5686 5685 5684 5684 5683 5683 5682 5682 5683 5684 5686 5688 5688 5689 5692 5692 5693 5694 5694 5695 5696 5697 5699 5701 5702 5703 5705 5707 5708 5709 5710 5712 5713 5714
5689 5687 5686 5684 5683 5682 5681 5680 5679 5679 5678 5678 5679 5680 5680 5682 5683 5683 5685 5688 5689 5691 5691 5691 5691 5692 5694 5696 5697 5698 5700 5701 5702 5704 5705 5707 5708 5709
5686 5684 5680 5676 5674 5673 5673 5674 5673 5673 5673 5672 5672 5673 5674 5674 5675 5677 5678 5681 5684 5686 5686 5687 5688 5690 5691 5692 5692 5694 5694 5696 5697 5699 5700 5701 5702 5703
5681 5679 5676 5674 5670 5667 5665 5664 5663 5664 5664 5664 5664 5665 5666 5667 5667 5668 5671 5672 5674 5678 5678 5679 5681 5683 5685 5687 5688 5689 5689 5690 5691 5693 5694 5695 5696 5697
5675 5674 5671 5668 5665 5665 5663 5659 5657 5654 5652 5653 5655 5656 5657 5658 5658 5660 5662 5663 5664 5669 5669 5671 5674 5676 5679 5681 5681 5682 5683 5684 5685 5686 5687 5688 5690 5691
5668 5667 5665 5662 5657 5655 5657 5655 5653 5650 5647 5646 5646 5646 5646 5646 5647 5649 5651 5654 5658 5660 5661 5661 5665 5668 5672 5673 5673 5674 5675 5676 5678 5679 5680 5681 5682 5684
5661 5658 5656 5654 5646 5645 5647 5647 5645 5643 5638 5635 5633 5633 5633 5633 5634 5638 5642 5644 5648 5651 5654 5653 5655 5657 5661 5664 5666 5666 5667 5668 5669 5671 5672 5673 5674 5675
5654 5651 5645 5642 5638 5635 5638 5637 5635 5634 5632 5631 5628 5627 5627 5627 5625 5627 5630 5631 5635 5638 5642 5641 5642 5644 5648 5653 5655 5656 5657 5659 5660 5662 5663 5665 5665 5666
5647 5645 5640 5633 5629 5627 5625 5626 5622 5620 5622 5622 5621 5621 5620 5619 5619 5618 5618 5618 5621 5624 5628 5627 5628 5630 5632 5638 5643 5645 5647 5649 5651 5653 5654 5656 5657 5657
5638 5635 5631 5624 5621 5618 5617 5614 5611 5610 5613 5613 5612 5611 5610 5609 5608 5608 5607 5607 5609 5611 5612 5613 5615 5616 5618 5622 5628 5632 5634 5637 5639 5642 5644 5646 5646 5648
5628 5624 5619 5615 5612 5612 5609 5605 5603 5604 5603 5602 5601 5600 5599 5598 5597 5596 5597 5597 5597 5599 5600 5600 5601 5603 5605 5608 5613 5616 5619 5622 5625 5628 5631 5633 5636 5637
5620 5616 5611 5607 5604 5602 5601 5600 5598 5595 5592 5591 5590 5589 5588 5587 5586 5585 5585 5586 5587 5589 5588 5586 5586 5587 5589 5592 5595 5600 5603 5606 5610 5612 5615 5618 5621 5624
5612 5609 5607 5604 5601 5598 5596 5593 5590 5587 5584 5582 5580 5579 5578 5577 5576 5573 5572 5572 5573 5574 5574 5573 5572 5572 5573 5575 5579 5583 5586 5589 5593 5595 5597 5601 5606 5609
5600 5601 5599 5596 5593 5590 5587 5585 5582 5578 5576 5573 5571 5568 5566 5565 5563 5561 5559 5558 5558 5558 5558 5557 5556 5557 5559 5563 5562 5566 5569 5572 5575 5577 5579 5583 5590 5595
5592 5592 5590 5588 5585 5581 5578 5576 5573 5569 5566 5563 5560 5557 5554 5552 5549 5547 5545 5543 5542 5542 5541 5539 5538 5538 5540 5547 5552 5547 5548 5553 5554 5557 5560 5565 5572 5579
5586 5584 5582 5578 5575 5572 5569 5565 5562 5559 5555 5551 5548 5544 5541 5537 5535 5532 5530 5527 5526 5525 5525 5523 5521 5521 5522 5526 5532 5534 5529 5531 5535 5539 5543 5547 5553 5558
5579 5576 5572 5569 5565 5562 5558 5554 5551 5547 5543 5539 5535 5531 5527 5523 5520 5517 5514 5512 5508 5508 5509 5509 5507 5503 5503 5505 5511 5518 5519 5517 5518 5521 5526 5530 5536 5542
5570 5566 5563 5558 5555 5551 5547 5542 5538 5535 5530 5526 5522 5518 5513 5509 5505 5502 5500 5497 5495 5494 5494 5494 5492 5490 5490 5491 5496 5502 5505 5506 5506 5507 5509 5513 5520 5529
5560 5555 5551 5547 5542 5538 5534 5530 5525 5521 5517 5512 5507 5502 5498 5494 5491 5488 5486 5483 5481 5480 5479 5479 5478 5477 5478 5479 5481 5485 5489 5492 5494 5496 5500 5502 5506 5511